GW7250 Weather Reports


time (UTC)temp
C
wind
direction
speed
KPH
gust
KPH
rain 1hr
cm
rain 24hr
cm
rain mn
cm
humidity
%
barometer
mb
20260503235556 16 240 3.2 4.8 0.00 0.00 0.00 40 1014.3
20260503235053 16 242 0.0 6.4 0.00 0.00 0.00 40 1014.1
20260503234550 16 212 3.2 4.8 0.00 0.00 0.00 40 1014.1
20260503234049 16 271 0.0 3.2 0.00 0.00 0.00 39 1014.1
20260503233545 16 228 6.4 12.9 0.00 0.00 0.00 37 1014.4
20260503233041 16 243 6.4 12.9 0.00 0.00 0.00 36 1014.4
20260503232538 16 278 8.0 9.7 0.00 0.00 0.00 37 1014.5
20260503232035 16 273 4.8 12.9 0.00 0.00 0.00 39 1014.5
20260503231533 16 276 3.2 11.3 0.00 0.00 0.00 37 1014.6
20260503231029 16 277 6.4 11.3 0.00 0.00 0.00 37 1014.4
20260503230526 16 239 4.8 11.3 0.00 0.00 0.00 36 1014.6
20260503230024 16 224 4.8 11.3 0.00 0.00 0.00 36 1014.7
20260503225521 16 247 9.7 11.3 0.00 0.00 0.00 37 1014.9
20260503225015 17 314 6.4 9.7 0.00 0.00 0.00 35 1015.0
20260503224513 17 306 8.0 11.3 0.00 0.00 0.00 35 1014.9
20260503224011 17 271 8.0 14.5 0.00 0.00 0.00 35 1014.8
20260503223509 17 257 6.4 11.3 0.00 0.00 0.00 35 1014.9
20260503223004 17 284 9.7 12.9 0.00 0.00 0.00 35 1014.9
20260503222502 17 301 4.8 6.4 0.00 0.00 0.00 34 1015.0
20260503222000 18 222 6.4 16.1 0.00 0.00 0.00 32 1015.3
20260503221458 17 233 3.2 6.4 0.00 0.00 0.00 34 1015.4
20260503220955 16 233 6.4 14.5 0.00 0.00 0.00 35 1015.3
20260503220452 17 248 17.7 22.5 0.00 0.00 0.00 31 1015.5
20260503215948 17 287 11.3 12.9 0.00 0.00 0.00 32 1015.4
20260503215445 17 275 4.8 12.9 0.00 0.00 0.00 32 1015.5
20260503214943 17 297 11.3 22.5 0.00 0.00 0.00 32 1015.9
20260503214441 17 241 8.0 14.5 0.00 0.00 0.00 29 1015.5
20260503213937 17 273 4.8 14.5 0.00 0.00 0.00 31 1015.6
20260503213436 18 277 11.3 14.5 0.00 0.00 0.00 33 1015.4
20260503212932 17 199 3.2 12.9 0.00 0.00 0.00 37 1015.1
20260503212429 18 259 6.4 12.9 0.00 0.00 0.00 31 1015.7
20260503211927 17 244 6.4 9.7 0.00 0.00 0.00 33 1015.7
20260503211424 17 284 9.7 14.5 0.00 0.00 0.00 32 1015.8
20260503210919 17 196 6.4 9.7 0.00 0.00 0.00 32 1015.9
20260503210416 17 256 8.0 11.3 0.00 0.00 0.00 34 1015.9
20260503205916 17 250 6.4 12.9 0.00 0.00 0.00 32 1016.0
20260503205414 17 172 4.8 11.3 0.00 0.00 0.00 32 1015.9
20260503204910 17 292 6.4 14.5 0.00 0.00 0.00 32 1015.9
20260503204407 17 249 11.3 17.7 0.00 0.00 0.00 30 1016.2
20260503203904 17 235 12.9 16.1 0.00 0.00 0.00 34 1016.1
20260503203402 17 182 8.0 22.5 0.00 0.00 0.00 31 1016.3
20260503202858 17 283 3.2 11.3 0.00 0.00 0.00 36 1016.3
20260503202356 17 278 6.4 11.3 0.00 0.00 0.00 34 1016.5
20260503201855 17 250 6.4 9.7 0.00 0.00 0.00 32 1016.8
20260503201351 16 268 12.9 17.7 0.00 0.00 0.00 34 1016.9
20260503200849 17 304 11.3 14.5 0.00 0.00 0.00 35 1016.9
20260503200344 17 205 6.4 11.3 0.00 0.00 0.00 30 1017.2
20260503195842 17 242 1.6 4.8 0.00 0.00 0.00 38 1017.3
20260503195338 17 273 12.9 17.7 0.00 0.00 0.00 32 1017.2
20260503194836 16 311 6.4 12.9 0.00 0.00 0.00 36 1017.2
20260503194331 16 330 8.0 16.1 0.00 0.00 0.00 34 1017.4
20260503193828 16 259 12.9 17.7 0.00 0.00 0.00 30 1017.7
20260503193324 16 283 11.3 12.9 0.00 0.00 0.00 34 1017.9
20260503192820 16 203 11.3 12.9 0.00 0.00 0.00 32 1017.9
20260503192315 17 276 6.4 16.1 0.00 0.00 0.00 32 1017.8
20260503191812 16 202 3.2 9.7 0.00 0.00 0.00 34 1017.8
20260503191309 16 280 16.1 22.5 0.00 0.00 0.00 31 1018.1
20260503190806 16 317 3.2 12.9 0.00 0.00 0.00 35 1018.1
20260503190303 16 243 9.7 17.7 0.00 0.00 0.00 31 1018.1
20260503185800 16 282 9.7 14.5 0.00 0.00 0.00 31 1018.2
20260503185255 16 243 8.0 14.5 0.00 0.00 0.00 31 1018.2
20260503184755 16 273 8.0 17.7 0.00 0.00 0.00 29 1018.4
20260503184252 16 287 6.4 14.5 0.00 0.00 0.00 35 1018.3
20260503183748 16 256 12.9 14.5 0.00 0.00 0.00 31 1018.5
20260503183246 16 258 6.4 16.1 0.00 0.00 0.00 35 1018.4
20260503182743 16 134 11.3 14.5 0.00 0.00 0.00 32 1018.6
20260503182242 15 277 6.4 9.7 0.00 0.00 0.00 35 1018.5
20260503181738 16 304 17.7 22.5 0.00 0.00 0.00 31 1018.5
20260503181236 16 217 6.4 9.7 0.00 0.00 0.00 31 1018.8
20260503180732 16 254 3.2 11.3 0.00 0.00 0.00 35 1018.7
20260503180230 16 241 6.4 9.7 0.00 0.00 0.00 30 1018.6
20260503175726 16 213 4.8 11.3 0.00 0.00 0.00 34 1018.8
20260503175225 15 272 6.4 11.3 0.00 0.00 0.00 32 1018.8
20260503174720 15 296 9.7 20.9 0.00 0.00 0.00 35 1019.2
20260503174218 15 310 6.4 6.4 0.00 0.00 0.00 33 1019.1
20260503173713 15 256 3.2 4.8 0.00 0.00 0.00 32 1019.2
20260503173209 15 191 8.0 11.3 0.00 0.00 0.00 31 1019.3
20260503172707 15 262 11.3 16.1 0.00 0.00 0.00 31 1019.5
20260503172204 15 240 6.4 6.4 0.00 0.00 0.00 34 1019.5
20260503171700 15 304 3.2 6.4 0.00 0.00 0.00 34 1019.2
20260503171157 15 263 6.4 11.3 0.00 0.00 0.00 38 1019.8
20260503170654 15 267 6.4 16.1 0.00 0.00 0.00 36 1019.9
20260503170151 15 198 1.6 4.8 0.00 0.00 0.00 32 1019.9
20260503160113 14 199 11.3 12.9 0.00 0.00 0.00 33 1020.7
20260503150542 13 217 1.6 4.8 0.00 0.00 0.00 35 1021.0
20260503130932 8 279 4.8 4.8 0.00 0.00 0.00 64 1020.7
20260503130430 8 266 3.2 4.8 0.00 0.00 0.00 64 1020.8
20260503110332 -1 345 0.0 0.0 0.00 0.00 0.00 97 1020.4
20260503100257 -2 345 0.0 0.0 0.00 0.00 0.00 97 1019.9
20260503090224 -1 345 0.0 0.0 0.00 0.00 0.00 97 1019.5
20260503081156 -1 345 0.0 0.0 0.00 0.00 0.00 96 1019.2
20260503080652 -1 345 0.0 0.0 0.00 0.00 0.00 96 1019.3
20260503080149 -1 345 0.0 0.0 0.00 0.00 0.00 96 1019.5
20260503072626 0 345 0.0 0.0 0.00 0.00 0.00 96 1019.1
20260503072123 0 345 0.0 0.0 0.00 0.00 0.00 96 1019.0
20260503071619 0 345 0.0 0.0 0.00 0.00 0.00 96 1019.1
20260503071116 0 345 0.0 0.0 0.00 0.00 0.00 96 1019.2
20260503070613 0 345 0.0 0.0 0.00 0.00 0.00 96 1019.3
20260503070111 0 345 0.0 0.0 0.00 0.00 0.00 96 1019.1
20260503055032 1 345 0.0 0.0 0.00 0.00 0.00 94 1019.3
20260503054528 1 345 0.0 0.0 0.00 0.00 0.00 94 1019.1
20260503054025 2 345 0.0 0.0 0.00 0.00 0.00 94 1019.3
20260503053523 2 345 0.0 0.0 0.00 0.00 0.00 94 1019.3
20260503053020 2 345 0.0 0.0 0.00 0.00 0.00 94 1019.2
20260503052517 1 345 0.0 0.0 0.00 0.00 0.00 94 1019.3
20260503052013 2 345 0.0 0.0 0.00 0.00 0.00 94 1019.1
20260503051509 2 345 0.0 0.0 0.00 0.00 0.00 94 1019.2
20260503051007 2 345 0.0 0.0 0.00 0.00 0.00 94 1019.3
20260503050502 2 345 0.0 0.0 0.00 0.00 0.00 94 1019.3
20260503050000 2 345 0.0 0.0 0.00 0.00 0.00 94 1019.5
20260503045457 2 345 0.0 0.0 0.00 0.00 0.00 93 1019.2
20260503044954 2 345 0.0 0.0 0.00 0.00 0.00 93 1019.2
20260503044451 2 345 0.0 0.0 0.00 0.00 0.00 93 1019.3
20260503043948 2 345 0.0 0.0 0.00 0.00 0.00 94 1019.1
20260503043444 2 345 0.0 0.0 0.00 0.00 0.00 94 1019.2
20260503042941 2 345 0.0 0.0 0.00 0.00 0.00 93 1019.2
20260503042438 2 345 0.0 0.0 0.00 0.00 0.00 93 1019.1
20260503041935 2 345 0.0 0.0 0.00 0.00 0.00 93 1019.1
20260503041431 2 345 0.0 0.0 0.00 0.00 0.00 93 1019.1
20260503040928 2 345 0.0 0.0 0.00 0.00 0.00 93 1019.2
20260503040426 2 345 0.0 0.0 0.00 0.00 0.00 92 1019.0
20260503035923 2 345 0.0 0.0 0.00 0.00 0.00 92 1019.1
20260503035420 3 345 0.0 0.0 0.00 0.00 0.00 92 1018.9
20260503034917 3 345 0.0 0.0 0.00 0.00 0.00 92 1018.9
20260503034415 3 345 0.0 0.0 0.00 0.00 0.00 92 1019.1
20260503033912 3 345 0.0 0.0 0.00 0.00 0.00 91 1019.1
20260503033409 3 345 0.0 0.0 0.00 0.00 0.00 91 1019.2
20260503032907 3 345 0.0 0.0 0.00 0.00 0.00 90 1018.9
20260503032406 3 345 0.0 0.0 0.00 0.00 0.00 90 1018.7
20260503031903 3 345 0.0 0.0 0.00 0.00 0.00 89 1018.9
20260503031400 4 345 0.0 0.0 0.00 0.00 0.00 88 1018.8
20260503030856 4 344 0.0 0.0 0.00 0.00 0.00 87 1018.8
20260503030353 4 344 0.0 1.6 0.00 0.00 0.00 85 1018.8
20260503025849 4 344 0.0 0.0 0.00 0.00 0.00 86 1018.5
20260503025347 4 344 0.0 0.0 0.00 0.00 0.00 84 1018.7
20260503024844 4 344 0.0 0.0 0.00 0.00 0.00 89 1018.7
20260503024341 4 344 0.0 0.0 0.00 0.00 0.00 88 1018.7
20260503023837 5 344 0.0 0.0 0.00 0.00 0.00 87 1018.6
20260503023335 5 344 0.0 0.0 0.00 0.00 0.00 87 1018.5
20260503022831 5 344 0.0 0.0 0.00 0.00 0.00 86 1018.5
20260503022326 5 345 0.0 1.6 0.00 0.00 0.00 87 1018.5
20260503021823 5 344 0.0 0.0 0.00 0.00 0.00 88 1018.4
20260503021319 5 344 0.0 0.0 0.00 0.00 0.00 87 1018.3
20260503020817 5 344 0.0 0.0 0.00 0.00 0.00 86 1018.1
20260503020315 5 344 0.0 0.0 0.00 0.00 0.00 87 1018.2
20260503015810 5 344 0.0 0.0 0.00 0.00 0.00 86 1018.1
20260503015307 5 344 0.0 0.0 0.00 0.00 0.00 85 1018.0
20260503014803 5 344 0.0 0.0 0.00 0.00 0.00 85 1018.0
20260503014301 5 344 0.0 0.0 0.00 0.00 0.00 85 1018.0
20260503013758 5 344 0.0 0.0 0.00 0.00 0.00 84 1017.9
20260503013255 5 344 0.0 0.0 0.00 0.00 0.00 83 1017.8
20260503012753 6 344 0.0 0.0 0.00 0.00 0.00 82 1017.8
20260503012250 6 344 0.0 0.0 0.00 0.00 0.00 80 1017.6
20260503011747 6 344 0.0 0.0 0.00 0.00 0.00 77 1017.7
20260503011244 7 344 0.0 0.0 0.00 0.00 0.00 75 1017.6
20260503010740 7 344 0.0 0.0 0.00 0.00 0.00 71 1017.7
20260503010237 7 344 0.0 0.0 0.00 0.00 0.00 68 1017.6
20260503005734 7 344 0.0 0.0 0.00 0.00 0.00 68 1017.4
20260503005231 8 344 0.0 0.0 0.00 0.00 0.00 67 1017.5
20260503004727 8 344 0.0 0.0 0.00 0.00 0.00 68 1017.3
20260503004226 8 344 0.0 0.0 0.00 0.00 0.00 65 1017.4
20260503003723 8 344 0.0 0.0 0.00 0.00 0.00 62 1017.5
20260503003220 9 344 0.0 0.0 0.00 0.00 0.00 62 1017.2
20260503002716 9 344 0.0 0.0 0.00 0.00 0.00 61 1017.3
20260503002213 10 344 0.0 0.0 0.00 0.00 0.00 58 1017.1
20260503001709 10 344 0.0 0.0 0.00 0.00 0.00 56 1017.1
20260503001206 10 344 1.6 1.6 0.00 0.00 0.00 55 1017.1
20260503000704 10 344 1.6 1.6 0.00 0.00 0.00 54 1016.9
20260503000203 10 343 1.6 1.6 0.00 0.00 0.00 53 1016.9